STARLINK-5769, 55585

Orbit data source: Space-Track

STARLINK-5769, 55585 is a payload satellite owned by SpaceX/Seattle (US) in LEO that was launched on Sun, 12 Feb 2023 UTC via an FALCON 9 launch vehicle from the Air Force Eastern Test Range (AFETR). Payload-class satellites include a variety of spacecraft equipped with specific instruments for various scientific and technological missions. These include communications satellites like Starlink; space stations such as the ISS; scientific satellites like the Hubble; Earth observation satellites from companies like Planet Labs, Umbra, and HawkEye 360; GPS; miniature CubeSats for education and research; and military/defense satellites.

Loading next visibility...
Identifier
55585, 2023-020S
Orbit
LEO
Country
Flag of USUS
Related business
Manufacturer
SpaceX/Seattle
Mission
Operational Commercial Communications
Bus & Motor
STARLINK, Unknown motor
Mass
305 kg wet, ~290 kg dry
Launch date (UTC)
2023-02-12 (3 years ago)
Launch vehicle
FALCON 9
Launch site
Air Force Eastern Test Range (AFETR)
Object type
Payload
Rocket body
Debris
Shape & HBR
Box + 1 Pan, 10.1 m
Radar Cross Section
13.562 m², Large (>1 m²)

Expand to show TLE details & history
Last TLE update: 13 hours ago

TLE from 13 hours ago
0 STARLINK-5769
1 55585U 23020S   25345.06774265  .00003359  00000-0  26360-3 0  9991
2 55585  43.0038 113.6226 0001727 275.7545  84.3101 15.02543657155737
Epoch: 2025-12-11T01:37Z
TLE epoch observation values (Epoch: 2025-12-11T01:37:32.964Z)
Latitude
-0°
Longitude
9.20622°
Altitude
558.716 km
Speed
7.584 km/s
True Right ascension
07h 34m 29s
True Declination
0° 00' 00"
Sunlit
Object was in full shadow at epoch
Visualization orbit readout
Latitude
Unknown
Longitude
Unknown
Altitude
Unknown
Speed
Unknown
Apparent Right ascension
Unknown
Apparent Declination
Unknown
Sunlit
N/A
Visualization observer readout
Local Sidereal Time
13:04:42
Azimuth
Unknown
Elevation
Unknown
Doppler factor
Unknown
Orbital elements
Apogee altitude
562.178 km
Perigee altitude
559.781 km
Semi-major axis
6,939.116 km
Eccentricity
0.00017
Inclination
43.0038°
RAAN
113.6226°
Arg. of periapsis
275.7545°
True anomaly
84.32979°
Mean anomaly
84.3101°
Eccentric anomaly
84.31995°
Mean motion
3.7548 °/min
Orbital period
95.88 mins
BSTAR
0.0002636
Loading maneuver chart data...
Computing Atmospheric mass density...
Loading historical data...
Loading historical data...
Loading historical data...
Loading historical data...
Loading historical data...
Loading historical data...
Loading historical data...

Documentation

Showing up to 5 results
|